[[{"header":{"parameterUnit":"m.s-1","parameterCategory":1,"la1":30.2991,"la2":30.254,"lo1":-89.0895,"lo2":-89.0444,"dy":0.0017,"dx":0.0017,"nx":28,"ny":28,"refTime":"2024-06-30T09:00:00:Z","depth":0,"parameterNumber":2,"parameterNumberName":"U-component_of_WINDS"},"data":[0,0,0,0,0,0,0,0,0,0,0,0,0,0,0,0,0,0,0,0,0,0,0,0,0,0,0,0,0,0,0,0,0,0,0,0,0,0,0,0,0,0,0,0,0,0,0,0,0,0,0,0,0,0,0,0,0,0,0.3621,0.3622,0,0.3784,0.3786,0.3788,0.3891,0.3891,0.3892,0.3892,0.4059,0.4063,0.4067,0,0,0,0,0,0,0,0,0,0,0,0,0,0.3396,0.34,0.362,0.3623,0.3625,0.3784,0.3786,0.3789,0.389,0.3891,0.3892,0.3892,0.4058,0.4063,0.4067,0,0,0,0,0,0,0,0,0,0,0,0,0,0.352,0.3401,0.362,0.3695,0.3703,0.3784,0.3786,0.3789,0.389,0.3891,0.3892,0.3893,0.4056,0.4062,0.4068,0.4087,0,0,0.4086,0.4088,0,0,0,0,0,0,0,0,0.3513,0.3528,0.3682,0.369,0.3699,0.3818,0.3769,0.3889,0.389,0.3819,0.3892,0.3893,0.3978,0.3991,0.4019,0.4095,0.4102,0.4086,0.409,0.4093,0.4094,0,0,0,0,0,0,0,0.3504,0.3522,0.3685,0.3684,0.3694,0.372,0.3739,0.3792,0.3892,0.3825,0.3833,0.3851,0.3983,0.4013,0.4024,0.4105,0.4086,0.4091,0.4095,0.4097,0.4206,0.4205,0,0,0,0,0,0,0.3484,0.3514,0.368,0.369,0.3606,0.3723,0.3744,0.3779,0.3892,0.391,0.385,0.3855,0.4003,0.4017,0.403,0.4061,0.4092,0.4098,0.4101,0.4206,0.4206,0.4205,0,0,0,0,0,0,0.3479,0.3498,0.3674,0.3604,0.3629,0.3726,0.3765,0.3782,0.3812,0.3911,0.3929,0.3863,0.4004,0.4022,0.4073,0.4068,0.4101,0.4106,0.4207,0.4206,0.4205,0.4122,0,0,0,0,0,0,0.3472,0.3495,0.3503,0.3604,0.3632,0.3713,0.3764,0.3784,0.3822,0.383,0.3927,0.3944,0.4006,0.4063,0.4078,0.4077,0.4111,0.4208,0.4207,0.4206,0.4125,0.4118,0.4112,0,0,0,0,0,0.3463,0.3473,0.3503,0.3523,0.3644,0.3712,0.3728,0.38,0.3821,0.383,0.3894,0.3941,0.4066,0.4068,0.4086,0.4086,0.4209,0.4207,0.4206,0.4128,0.412,0.4112,0,0,0,0,0,0,0.3368,0.3487,0.3522,0.3564,0.3627,0.3729,0.3743,0.3788,0.3846,0.3851,0.3938,0.3959,0.4001,0.4049,0.4048,0.4111,0.4143,0.4145,0.4078,0.4071,0.4064,0.4051,0.4115,0,0,0,0,0,0.3352,0.3398,0.3499,0.3527,0.3557,0.3644,0.3676,0.3726,0.3795,0.3822,0.3889,0.3954,0.4009,0.4042,0.4098,0.4133,0.4156,0.4142,0.4135,0.4129,0.413,0.4153,0.4149,0.42,0.42,0.42,0,0,0.332,0.339,0.3414,0.351,0.3564,0.361,0.3666,0.3711,0.3746,0.3829,0.3881,0.3932,0.4011,0.4054,0.4076,0.4095,0.4121,0.4127,0.4122,0.4126,0.4151,0.4146,0.4142,0.4199,0.4199,0.4199,0,0,0.3284,0.3341,0.3371,0.3425,0.3508,0.3566,0.3573,0.3669,0.3706,0.376,0.3824,0.3866,0.3958,0.4011,0.405,0.4036,0.4081,0.4051,0.4016,0.4037,0.4033,0.403,0.4026,0.4023,0.4052,0.4051,0.4051,0,0.3232,0.3303,0.3381,0.3423,0.3463,0.3542,0.3573,0.3621,0.3717,0.3743,0.3763,0.388,0.3939,0.3996,0.3992,0.4021,0.4032,0.404,0.4028,0.4025,0.4024,0.402,0.4018,0.4047,0.4048,0.4048,0.4049,0,0.3237,0.3285,0.3299,0.3391,0.3433,0.3469,0.3552,0.3586,0.3632,0.3688,0.3743,0.3815,0.3887,0.3905,0.395,0.3969,0.3978,0.4011,0.4045,0.4013,0.4011,0.4011,0.4041,0.4043,0.4044,0.4045,0,0,0.3144,0.3279,0.3283,0.3326,0.3424,0.3462,0.3502,0.3573,0.3601,0.3665,0.3701,0.3777,0.3809,0.3853,0.3906,0.3925,0.3909,0.3957,0.396,0.3945,0.3935,0.3909,0.3906,0.3941,0.3941,0.3941,0.3929,0,0.3123,0.3199,0.327,0.3321,0.3367,0.3442,0.3478,0.3541,0.3595,0.3642,0.3702,0.3755,0.3793,0.382,0.3843,0.3906,0.3909,0.3908,0.3975,0.3977,0.3953,0.3906,0.3878,0.3863,0.3929,0.3929,0.3929,0,0.3107,0.3169,0.3224,0.3318,0.334,0.337,0.3441,0.3485,0.3559,0.3598,0.3647,0.3703,0.375,0.3779,0.3844,0.3842,0.3874,0.391,0.3911,0.392,0.395,0.3913,0.386,0.3858,0.3928,0.3928,0.3928,0,0.3035,0.3131,0.3177,0.3211,0.3322,0.3342,0.3389,0.3464,0.3502,0.3565,0.3591,0.3657,0.3694,0.3744,0.3817,0.3831,0.3875,0.391,0.3908,0.3906,0.3913,0.3912,0.3865,0.3933,0.3933,0.3933,0.3934,0,0.3003,0.3034,0.3146,0.3174,0.3211,0.3293,0.3327,0.3381,0.3448,0.3488,0.3557,0.3594,0.3687,0.3735,0.3792,0.3838,0.3854,0.3886,0.3901,0.388,0.3875,0.3901,0.3904,0.3933,0.3933,0.3933,0.3933,0,0.2928,0.3004,0.3059,0.316,0.3186,0.3209,0.3296,0.3326,0.3384,0.3434,0.3451,0.3542,0.3602,0.368,0.3763,0.3802,0.3841,0.3864,0.3816,0.3825,0.3819,0.3818,0.3787,0.3787,0.3854,0.3854,0.3853,0,0.2902,0.2928,0.3032,0.3064,0.3109,0.316,0.32,0.3282,0.332,0.3408,0.3427,0.3493,0.3549,0.3641,0.3715,0.378,0.3805,0.379,0.3815,0.3794,0.3805,0.3803,0.3806,0.3783,0.3782,0.3781,0.378,0,0.2849,0.2886,0.2941,0.3009,0.3055,0.3113,0.3174,0.3196,0.3291,0.3331,0.3393,0.3437,0.3523,0.3587,0.3662,0.3711,0.3761,0.3772,0.3775,0.3753,0.3724,0.374,0.3799,0.3772,0.3773,0.3773,0.3774,0.3774,0.2799,0.2825,0.2903,0.2962,0.3017,0.3072,0.3106,0.3169,0.3223,0.3299,0.3345,0.3405,0.348,0.3586,0.3633,0.3682,0.3701,0.3705,0.3707,0.3706,0.37,0.3717,0.3696,0.3696,0.3696,0.3697,0.3697,0,0.2749,0.2803,0.2857,0.2941,0.2987,0.3031,0.3101,0.3137,0.319,0.3256,0.331,0.3382,0.3445,0.3524,0.3593,0.3616,0.3641,0.3632,0.3631,0.3641,0.3678,0.3669,0.361,0.361,0.361,0.361,0.361,0.361,0.2729,0.2777,0.2823,0.2899,0.2953,0.3014,0.305,0.3102,0.3155,0.3232,0.3285,0.3336,0.3408,0.3482,0.3542,0.3564,0.3586,0.3569,0.3598,0.3631,0.3638,0.3646,0.3637,0.3573,0.3573,0.3557,0.3557,0.3557]},{"header":{"parameterUnit":"m.s-1","parameterCategory":1,"la1":30.2991,"la2":30.254,"lo1":-89.0895,"lo2":-89.0444,"dy":0.0017,"dx":0.0017,"nx":28,"ny":28,"refTime":"2024-06-30T09:00:00:Z","depth":0,"parameterNumber":3,"parameterNumberName":"V-component_of_WINDS"},"data":[0,0,0,0,0,0,0,0,0,0,0,0,0,0,0,0,0,0,0,0,0,0,0,0,0,0,0,0,0,0,0,0,0,0,0,0,0,0,0,0,0,0,0,0,0,0,0,0,0,0,0,0,0,0,0,0,0,0,-0.1644,-0.1643,0,-0.159,-0.1589,-0.1589,-0.159,-0.1591,-0.1592,-0.1593,-0.1535,-0.1533,-0.1531,0,0,0,0,0,0,0,0,0,0,0,0,0,-0.1746,-0.1744,-0.1644,-0.1643,-0.1642,-0.159,-0.1589,-0.1589,-0.159,-0.1591,-0.1592,-0.1593,-0.1536,-0.1534,-0.1531,0,0,0,0,0,0,0,0,0,0,0,0,0,-0.1698,-0.1743,-0.1644,-0.1637,-0.1636,-0.159,-0.1589,-0.1589,-0.159,-0.1591,-0.1592,-0.1593,-0.1537,-0.1534,-0.1531,-0.1488,0,0,-0.152,-0.1519,0,0,0,0,0,0,0,0,-0.17,-0.1694,-0.1639,-0.1637,-0.1636,-0.1598,-0.1604,-0.1555,-0.159,-0.1607,-0.1593,-0.1594,-0.1555,-0.1551,-0.1538,-0.1485,-0.1483,-0.152,-0.1518,-0.1517,-0.1516,0,0,0,0,0,0,0,-0.1704,-0.1696,-0.1622,-0.1638,-0.1636,-0.1636,-0.163,-0.1595,-0.1576,-0.1606,-0.1606,-0.16,-0.1555,-0.1541,-0.1537,-0.1482,-0.152,-0.1517,-0.1515,-0.1514,-0.1391,-0.139,0,0,0,0,0,0,-0.1709,-0.1699,-0.1624,-0.1621,-0.1672,-0.1633,-0.1627,-0.1609,-0.1576,-0.1572,-0.1599,-0.16,-0.1546,-0.154,-0.1535,-0.1482,-0.1517,-0.1514,-0.1512,-0.1392,-0.1391,-0.1389,0,0,0,0,0,0,-0.1711,-0.1702,-0.1626,-0.166,-0.165,-0.163,-0.161,-0.1607,-0.1594,-0.1571,-0.1567,-0.1589,-0.1547,-0.1539,-0.15,-0.148,-0.1512,-0.1509,-0.1394,-0.1392,-0.139,-0.1376,0,0,0,0,0,0,-0.1714,-0.1703,-0.1687,-0.166,-0.1648,-0.1592,-0.1609,-0.1606,-0.1588,-0.1589,-0.156,-0.1556,-0.1547,-0.1504,-0.1496,-0.1476,-0.1506,-0.1395,-0.1393,-0.1391,-0.1378,-0.1374,-0.137,0,0,0,0,0,-0.1718,-0.1684,-0.1686,-0.1677,-0.1628,-0.1591,-0.1585,-0.1576,-0.1587,-0.157,-0.1555,-0.1557,-0.1484,-0.15,-0.1491,-0.1469,-0.1397,-0.1394,-0.1391,-0.138,-0.1375,-0.137,0,0,0,0,0,0,-0.1709,-0.1681,-0.1682,-0.1639,-0.1618,-0.1592,-0.157,-0.1571,-0.1545,-0.1547,-0.1536,-0.1529,-0.1489,-0.1476,-0.1495,-0.1426,-0.1441,-0.1437,-0.1436,-0.1431,-0.1427,-0.1431,-0.1504,0,0,0,0,0,-0.1702,-0.1675,-0.1652,-0.1617,-0.1606,-0.159,-0.1574,-0.1569,-0.1546,-0.1536,-0.1519,-0.1496,-0.1467,-0.1449,-0.1422,-0.1377,-0.137,-0.1357,-0.1354,-0.135,-0.1346,-0.1321,-0.1315,-0.138,-0.138,-0.138,0,0,-0.1687,-0.1669,-0.1652,-0.1614,-0.1597,-0.1569,-0.1582,-0.1552,-0.1531,-0.1531,-0.1493,-0.1479,-0.1453,-0.141,-0.1391,-0.1398,-0.1327,-0.1347,-0.1344,-0.1341,-0.1317,-0.1311,-0.1305,-0.1378,-0.1378,-0.1379,0,0,-0.1646,-0.163,-0.1598,-0.1581,-0.1555,-0.1545,-0.1537,-0.1511,-0.1503,-0.1464,-0.1464,-0.1439,-0.139,-0.1372,-0.1356,-0.1309,-0.1309,-0.13,-0.1279,-0.1254,-0.1249,-0.1245,-0.1227,-0.1221,-0.1296,-0.1296,-0.1296,0,-0.163,-0.1588,-0.1581,-0.1551,-0.1534,-0.1535,-0.1502,-0.1486,-0.1452,-0.144,-0.1449,-0.1389,-0.1371,-0.1324,-0.1313,-0.13,-0.1291,-0.1302,-0.1251,-0.1246,-0.1242,-0.1224,-0.1218,-0.1295,-0.1295,-0.1295,-0.1295,0,-0.157,-0.1542,-0.1519,-0.1487,-0.1468,-0.1437,-0.1424,-0.1406,-0.1403,-0.1392,-0.1352,-0.1332,-0.13,-0.1289,-0.1286,-0.1242,-0.1247,-0.1253,-0.1268,-0.1234,-0.1218,-0.1212,-0.1294,-0.1294,-0.1294,-0.1294,0,0,-0.152,-0.1486,-0.1477,-0.1463,-0.1435,-0.1412,-0.1381,-0.1352,-0.1335,-0.1313,-0.1285,-0.1245,-0.1252,-0.1234,-0.1228,-0.1207,-0.117,-0.1216,-0.1216,-0.1208,-0.112,-0.1114,-0.1106,-0.1172,-0.117,-0.1169,-0.1121,0,-0.1474,-0.1419,-0.1413,-0.1364,-0.1336,-0.1338,-0.1311,-0.1291,-0.128,-0.1255,-0.1243,-0.1214,-0.1225,-0.1214,-0.1194,-0.1179,-0.1152,-0.1183,-0.1145,-0.1144,-0.115,-0.1098,-0.1091,-0.1047,-0.1115,-0.1114,-0.1113,0,-0.1413,-0.139,-0.1338,-0.1315,-0.1303,-0.1279,-0.1251,-0.1227,-0.1205,-0.1198,-0.1179,-0.1177,-0.1144,-0.1162,-0.1116,-0.1137,-0.1122,-0.1113,-0.1111,-0.1105,-0.1125,-0.109,-0.1032,-0.1025,-0.1103,-0.1104,-0.1105,0,-0.138,-0.1335,-0.1299,-0.1287,-0.1258,-0.1241,-0.1229,-0.1207,-0.119,-0.1166,-0.1154,-0.1126,-0.1111,-0.1089,-0.1079,-0.1093,-0.1034,-0.1051,-0.1027,-0.1027,-0.1013,-0.1013,-0.0951,-0.1006,-0.1006,-0.1006,-0.1006,0,-0.1329,-0.1297,-0.1283,-0.126,-0.1225,-0.1218,-0.1182,-0.1171,-0.1152,-0.1126,-0.1126,-0.1102,-0.1092,-0.1066,-0.1058,-0.1021,-0.1015,-0.1008,-0.1006,-0.1007,-0.1008,-0.0995,-0.0997,-0.1004,-0.1005,-0.1005,-0.1005,0,-0.1284,-0.1274,-0.1234,-0.1211,-0.1205,-0.118,-0.116,-0.1138,-0.1128,-0.1096,-0.1088,-0.1072,-0.1042,-0.1031,-0.0994,-0.0989,-0.0946,-0.0947,-0.0954,-0.0953,-0.0929,-0.0931,-0.0854,-0.0844,-0.0907,-0.0907,-0.0906,0,-0.1251,-0.1227,-0.1202,-0.1185,-0.1172,-0.1146,-0.1128,-0.1121,-0.1102,-0.1075,-0.1056,-0.1027,-0.1002,-0.0954,-0.0939,-0.0911,-0.0911,-0.0886,-0.0906,-0.0908,-0.0909,-0.091,-0.0907,-0.0882,-0.0881,-0.0881,-0.088,0,-0.1194,-0.119,-0.1165,-0.1139,-0.1118,-0.1097,-0.1076,-0.1062,-0.1052,-0.1031,-0.1001,-0.0982,-0.0946,-0.0916,-0.0887,-0.0874,-0.0875,-0.0874,-0.0867,-0.0867,-0.0871,-0.0867,-0.0942,-0.0876,-0.0876,-0.0876,-0.0877,-0.0877,-0.1153,-0.1131,-0.111,-0.1083,-0.1067,-0.1048,-0.1026,-0.1014,-0.0989,-0.0958,-0.0956,-0.0923,-0.0901,-0.0863,-0.0849,-0.0823,-0.0829,-0.0819,-0.0816,-0.0813,-0.0811,-0.0877,-0.0818,-0.0818,-0.0818,-0.0818,-0.0818,0,-0.1094,-0.1081,-0.1056,-0.1027,-0.1006,-0.101,-0.0988,-0.0969,-0.094,-0.0921,-0.0897,-0.0862,-0.0834,-0.0818,-0.0789,-0.0771,-0.0771,-0.0764,-0.0764,-0.0761,-0.0807,-0.0816,-0.0765,-0.0765,-0.0765,-0.0765,-0.0765,-0.0765,-0.106,-0.1024,-0.1018,-0.0974,-0.0961,-0.0929,-0.0916,-0.0898,-0.0882,-0.0844,-0.082,-0.0811,-0.0792,-0.0762,-0.0736,-0.0732,-0.0721,-0.0713,-0.0709,-0.0752,-0.0758,-0.0763,-0.0771,-0.0711,-0.0711,-0.0665,-0.0665,-0.0664]}]]